Location: Fort Wayne
(41.1310°N, 85.1290°W)
Time: 13:54:26
(UTC-04:00)

OPAL - Visible Passes

Search period start: 24 August 2016 00:00
Search period end: 03 September 2016 00:00
Orbit: 743 x 796 km, 100.2° (Epoch: 23 August)

Date Brightness Start Highest point End Pass type
(mag) Time Alt. Az. Time Alt. Az. Time Alt. Az.
24 Aug 9.9 02:44:22 10° NE 02:46:14 15° ENE 02:46:14 15° ENE visible
24 Aug 7.7 04:21:52 10° N 04:26:31 56° NW 04:26:31 56° NW visible
25 Aug 8.0 03:46:22 10° NNE 03:50:31 56° NE 03:50:31 56° NE visible
25 Aug 9.2 05:26:42 10° NNW 05:29:44 16° WNW 05:30:48 15° WNW visible
26 Aug 9.2 03:11:24 10° NE 03:14:31 26° ENE 03:14:31 26° ENE visible
26 Aug 8.4 04:50:12 10° N 04:54:39 33° WNW 04:54:48 33° WNW visible
27 Aug 10.1 02:37:35 10° ENE 02:38:31 12° ENE 02:38:31 12° ENE visible
27 Aug 7.7 04:14:22 10° N 04:18:48 63° NNW 04:18:48 63° NNW visible
28 Aug 8.5 03:39:00 10° NNE 03:42:48 44° ENE 03:42:48 44° ENE visible
28 Aug 9.0 05:18:52 10° NNW 05:22:26 20° WNW 05:23:05 19° WNW visible
29 Aug 9.6 03:04:13 10° NE 03:06:48 21° ENE 03:06:48 21° ENE visible
29 Aug 8.1 04:42:36 10° N 04:47:05 40° WNW 04:47:05 40° WNW visible
30 Aug 7.8 04:06:54 10° NNE 04:11:06 62° N 04:11:06 62° N visible
30 Aug 9.5 05:48:22 10° NW 05:50:05 12° WNW 05:51:23 11° WNW visible
31 Aug 8.9 03:31:40 10° NNE 03:35:05 35° ENE 03:35:05 35° ENE visible
31 Aug 8.8 05:11:07 10° N 05:15:06 24° WNW 05:15:23 24° WNW visible
01 Sep 9.9 02:57:08 10° NE 02:59:06 17° ENE 02:59:06 17° ENE visible
01 Sep 8.0 04:35:03 10° N 04:39:23 47° NW 04:39:23 47° NW visible
02 Sep 8.1 03:59:28 10° NNE 04:03:23 53° NNE 04:03:23 53° NNE visible
02 Sep 9.3 05:40:09 10° NNW 05:42:48 14° WNW 05:43:40 14° WNW visible
